Location: Bieg
(49.3499°N, 10.3835°E)
Time: 11:00:54
(UTC+00:00)

Cosmos 1745 Rocket - Pass Details

Date: 23 May 2024
Orbit: 953 x 997 km, 83.0° (Epoch: 24 June)

Event Time Altitude Azimuth Distance (km) Brightness Sun altitude
Exits shadow 00:48:39 23° 176° (S) 1,955 5.1 -17.0°
Maximum altitude 00:52:45 74° 96° (E) 1,016 4.1 -16.7°
Drops below altitude 10° 00:59:03 10° 12° (NNE) 2,752 7.6 -16.3°
Sets 01:01:35 0° 11° (N) 3,710 8.6 -16.1°
